Terminal Aerodrome Forecast
Issued by NWS

Home | Current Version | Previous Version | Text Only | Print | Product List | Glossary On
Versions: 1 2 3 4 5 6 7 8 9 10 11 12 13 14 15 16 17 18 19 20 21 22 23 24 25 26 27 28 29 30 31 32 33 34
000
FTUS45 KBOU 281722
TAFAPA
TAF
KAPA 281722Z 2818/2918 16008KT P6SM BKN220
     FM282000 24010KT P6SM BKN220
     FM290100 19010KT P6SM BKN220=

USA.gov is the U.S. government's official web portal to all federal, state and local government web resources and services.